Time,TemperatureF,DewpointF,PressureIn,WindDirection,WindDirectionDegrees,WindSpeedMPH,WindSpeedGustMPH,Humidity,HourlyPrecipIn,Conditions,Clouds,dailyrainin,SoftwareType,DateUTC
2013-08-02 00:00:00,56.4,21.5,30.10,NE,52,6.0,7.0,26,0.00,,---,0.00,VWS V14.00,2013-08-02 07:00:00,
2013-08-02 00:10:00,55.9,21.1,30.10,NE,53,4.0,6.0,26,0.00,,---,0.00,VWS V14.00,2013-08-02 07:10:00,
2013-08-02 00:15:00,55.8,21.9,30.10,NE,52,0.0,4.0,26,0.00,,---,0.00,VWS V14.00,2013-08-02 07:15:00,
2013-08-02 00:20:00,56.2,23.1,30.10,NE,53,0.0,0.0,28,0.00,,---,0.00,VWS V14.00,2013-08-02 07:20:00,
2013-08-02 00:25:00,56.7,22.7,30.10,NE,53,0.0,0.0,26,0.00,,---,0.00,VWS V14.00,2013-08-02 07:25:00,
2013-08-02 00:30:00,55.3,22.4,30.10,NE,53,0.0,0.0,28,0.00,,---,0.00,VWS V14.00,2013-08-02 07:30:00,
2013-08-02 00:35:00,53.9,21.1,30.10,NE,52,0.0,0.0,28,0.00,,---,0.00,VWS V14.00,2013-08-02 07:35:00,
2013-08-02 00:40:00,54.0,21.2,30.10,NE,53,0.0,0.0,28,0.00,,---,0.00,VWS V14.00,2013-08-02 07:40:00,
2013-08-02 00:45:00,54.0,22.1,30.10,NE,53,0.0,0.0,28,0.00,,---,0.00,VWS V14.00,2013-08-02 07:45:00,
2013-08-02 00:50:00,54.3,21.5,30.10,NE,52,0.0,0.0,28,0.00,,---,0.00,VWS V14.00,2013-08-02 07:50:00,
2013-08-02 00:55:00,53.9,22.0,30.10,NE,53,0.0,0.0,28,0.00,,---,0.00,VWS V14.00,2013-08-02 07:55:00,
2013-08-02 01:00:00,53.9,22.0,30.10,NE,53,0.0,0.0,28,0.00,,---,0.00,VWS V14.00,2013-08-02 08:00:00,
2013-08-02 01:05:00,53.6,21.7,30.10,NE,53,0.0,0.0,28,0.00,,---,0.00,VWS V14.00,2013-08-02 08:05:00,
2013-08-02 01:10:00,52.9,21.9,30.10,NE,53,0.0,0.0,30,0.00,,---,0.00,VWS V14.00,2013-08-02 08:10:00,
2013-08-02 01:15:00,52.9,21.9,30.10,NE,53,0.0,0.0,30,0.00,,---,0.00,VWS V14.00,2013-08-02 08:15:00,
2013-08-02 01:20:00,53.7,21.8,30.10,NE,53,0.0,0.0,28,0.00,,---,0.00,VWS V14.00,2013-08-02 08:20:00,
2013-08-02 01:25:00,54.0,22.1,30.10,NE,52,0.0,0.0,28,0.00,,---,0.00,VWS V14.00,2013-08-02 08:25:00,
2013-08-02 01:35:00,53.0,21.2,30.10,NE,53,0.0,0.0,28,0.00,,---,0.00,VWS V14.00,2013-08-02 08:35:00,
2013-08-02 01:40:00,53.5,21.6,30.10,NE,53,0.0,0.0,28,0.00,,---,0.00,VWS V14.00,2013-08-02 08:40:00,
2013-08-02 01:45:00,54.8,22.8,30.10,NE,52,0.0,0.0,28,0.00,,---,0.00,VWS V14.00,2013-08-02 08:45:00,
2013-08-02 01:50:00,56.4,23.3,30.10,NE,52,0.0,0.0,28,0.00,,---,0.00,VWS V14.00,2013-08-02 08:50:00,
2013-08-02 01:55:00,55.5,20.7,30.10,NE,53,0.0,0.0,26,0.00,,---,0.00,VWS V14.00,2013-08-02 08:55:00,
2013-08-02 02:05:00,52.1,19.6,30.10,NE,52,0.0,0.0,28,0.00,,---,0.00,VWS V14.00,2013-08-02 09:05:00,
2013-08-02 02:10:00,51.9,21.1,30.10,NE,53,4.0,7.0,30,0.00,,---,0.00,VWS V14.00,2013-08-02 09:10:00,
2013-08-02 02:15:00,52.2,21.3,30.10,NE,53,0.0,6.0,30,0.00,,---,0.00,VWS V14.00,2013-08-02 09:15:00,
2013-08-02 02:20:00,52.3,21.4,30.10,NE,53,1.0,8.0,30,0.00,,---,0.00,VWS V14.00,2013-08-02 09:20:00,
2013-08-02 02:25:00,52.0,21.1,30.10,NE,52,0.0,4.0,30,0.00,,---,0.00,VWS V14.00,2013-08-02 09:25:00,
2013-08-02 02:30:00,51.8,21.0,30.10,NE,53,0.0,0.0,30,0.00,,---,0.00,VWS V14.00,2013-08-02 09:30:00,
2013-08-02 02:35:00,51.7,20.9,30.10,NE,53,0.0,0.0,30,0.00,,---,0.00,VWS V14.00,2013-08-02 09:35:00,
2013-08-02 02:40:00,51.4,19.8,30.09,NE,52,0.0,0.0,28,0.00,,---,0.00,VWS V14.00,2013-08-02 09:40:00,
2013-08-02 02:45:00,50.8,19.3,30.10,NE,52,0.0,0.0,28,0.00,,---,0.00,VWS V14.00,2013-08-02 09:45:00,
2013-08-02 02:50:00,50.9,20.2,30.10,NE,53,0.0,0.0,30,0.00,,---,0.00,VWS V14.00,2013-08-02 09:50:00,
2013-08-02 02:55:00,52.2,20.5,30.09,NE,53,0.0,0.0,28,0.00,,---,0.00,VWS V14.00,2013-08-02 09:55:00,
2013-08-02 03:00:00,52.9,21.1,30.09,NE,52,0.0,0.0,28,0.00,,---,0.00,VWS V14.00,2013-08-02 10:00:00,
2013-08-02 03:05:00,54.2,22.2,30.09,NE,52,0.0,0.0,28,0.00,,---,0.00,VWS V14.00,2013-08-02 10:05:00,
2013-08-02 03:10:00,55.0,22.9,30.09,NE,53,0.0,0.0,28,0.00,,---,0.00,VWS V14.00,2013-08-02 10:10:00,
2013-08-02 03:15:00,55.2,22.3,30.09,NE,52,0.0,0.0,28,0.00,,---,0.00,VWS V14.00,2013-08-02 10:15:00,
2013-08-02 03:20:00,54.7,21.8,30.10,NE,52,0.0,0.0,28,0.00,,---,0.00,VWS V14.00,2013-08-02 10:20:00,
2013-08-02 03:25:00,54.2,22.2,30.09,NE,53,0.0,0.0,28,0.00,,---,0.00,VWS V14.00,2013-08-02 10:25:00,
2013-08-02 03:30:00,53.5,21.6,30.09,NE,53,0.0,0.0,28,0.00,,---,0.00,VWS V14.00,2013-08-02 10:30:00,
2013-08-02 03:35:00,53.0,22.0,30.09,NE,53,0.0,0.0,30,0.00,,---,0.00,VWS V14.00,2013-08-02 10:35:00,
2013-08-02 03:40:00,52.8,22.6,30.09,NE,52,0.0,0.0,30,0.00,,---,0.00,VWS V14.00,2013-08-02 10:40:00,
2013-08-02 03:45:00,53.0,22.8,30.09,NE,53,0.0,0.0,30,0.00,,---,0.00,VWS V14.00,2013-08-02 10:45:00,
2013-08-02 03:50:00,52.7,22.5,30.09,NE,53,0.0,0.0,30,0.00,,---,0.00,VWS V14.00,2013-08-02 10:50:00,
2013-08-02 03:55:00,52.8,22.6,30.09,NE,53,0.0,0.0,30,0.00,,---,0.00,VWS V14.00,2013-08-02 10:55:00,
2013-08-02 04:00:00,52.8,22.6,30.09,NE,52,0.0,0.0,30,0.00,,---,0.00,VWS V14.00,2013-08-02 11:00:00,
2013-08-02 04:05:00,52.6,22.5,30.09,NE,53,0.0,0.0,30,0.00,,---,0.00,VWS V14.00,2013-08-02 11:05:00,
2013-08-02 04:10:00,52.2,22.1,30.09,NE,53,0.0,0.0,30,0.00,,---,0.00,VWS V14.00,2013-08-02 11:10:00,
2013-08-02 04:20:00,52.5,22.4,30.10,NE,53,0.0,0.0,30,0.00,,---,0.00,VWS V14.00,2013-08-02 11:20:00,
2013-08-02 04:25:00,51.1,19.6,30.10,NE,53,0.0,0.0,28,0.00,,---,0.00,VWS V14.00,2013-08-02 11:25:00,
2013-08-02 04:30:00,48.8,19.1,30.10,NE,53,0.0,0.0,30,0.00,,---,0.00,VWS V14.00,2013-08-02 11:30:00,
2013-08-02 04:35:00,47.3,18.6,30.10,NE,52,0.0,0.0,32,0.00,,---,0.00,VWS V14.00,2013-08-02 11:35:00,
2013-08-02 04:45:00,47.9,19.1,30.10,NE,53,0.0,0.0,32,0.00,,---,0.00,VWS V14.00,2013-08-02 11:45:00,
2013-08-02 04:50:00,47.8,19.0,30.10,NE,52,0.0,0.0,32,0.00,,---,0.00,VWS V14.00,2013-08-02 11:50:00,
2013-08-02 04:55:00,48.1,19.3,30.10,NE,52,0.0,0.0,32,0.00,,---,0.00,VWS V14.00,2013-08-02 11:55:00,
2013-08-02 05:00:00,48.8,20.6,30.09,NE,53,0.0,0.0,32,0.00,,---,0.00,VWS V14.00,2013-08-02 12:00:00,
2013-08-02 05:05:00,48.9,18.5,30.10,NE,53,0.0,0.0,30,0.00,,---,0.00,VWS V14.00,2013-08-02 12:05:00,
2013-08-02 05:10:00,47.8,18.3,30.10,NE,52,0.0,0.0,30,0.00,,---,0.00,VWS V14.00,2013-08-02 12:10:00,
2013-08-02 05:15:00,47.3,17.8,30.09,NE,53,0.0,2.0,30,0.00,,---,0.00,VWS V14.00,2013-08-02 12:15:00,
2013-08-02 05:20:00,47.2,17.8,30.10,NE,53,0.0,0.0,30,0.00,,---,0.00,VWS V14.00,2013-08-02 12:20:00,
2013-08-02 05:25:00,47.6,18.1,30.10,NE,52,0.0,0.0,30,0.00,,---,0.00,VWS V14.00,2013-08-02 12:25:00,
2013-08-02 05:30:00,47.8,19.0,30.10,NE,52,0.0,0.0,32,0.00,,---,0.00,VWS V14.00,2013-08-02 12:30:00,
2013-08-02 05:35:00,48.1,20.0,30.10,NE,53,0.0,0.0,32,0.00,,---,0.00,VWS V14.00,2013-08-02 12:35:00,
2013-08-02 05:40:00,48.9,20.0,30.10,NE,53,0.0,0.0,32,0.00,,---,0.00,VWS V14.00,2013-08-02 12:40:00,
2013-08-02 05:45:00,48.3,19.5,30.10,NE,53,0.0,0.0,32,0.00,,---,0.00,VWS V14.00,2013-08-02 12:45:00,
2013-08-02 05:55:00,46.6,18.0,30.10,NE,53,0.0,0.0,32,0.00,,---,0.00,VWS V14.00,2013-08-02 12:55:00,
2013-08-02 06:00:00,46.0,17.5,30.10,NE,53,0.0,0.0,32,0.00,,---,0.00,VWS V14.00,2013-08-02 13:00:00,
2013-08-02 06:05:00,46.0,17.5,30.10,NE,53,0.0,0.0,32,0.00,,---,0.00,VWS V14.00,2013-08-02 13:05:00,
2013-08-02 06:10:00,46.2,18.4,30.10,NE,52,0.0,0.0,32,0.00,,---,0.00,VWS V14.00,2013-08-02 13:10:00,
2013-08-02 06:15:00,46.8,18.1,30.10,NE,53,0.0,0.0,32,0.00,,---,0.00,VWS V14.00,2013-08-02 13:15:00,
2013-08-02 06:20:00,47.3,18.6,30.10,NE,53,0.0,0.0,32,0.00,,---,0.00,VWS V14.00,2013-08-02 13:20:00,
2013-08-02 06:30:00,48.9,20.0,30.11,NE,53,0.0,0.0,32,0.00,,---,0.00,VWS V14.00,2013-08-02 13:30:00,
2013-08-02 06:35:00,48.8,19.9,30.11,NE,53,0.0,0.0,32,0.00,,---,0.00,VWS V14.00,2013-08-02 13:35:00,
2013-08-02 06:40:00,49.2,20.2,30.11,NE,52,0.0,0.0,32,0.00,,---,0.00,VWS V14.00,2013-08-02 13:40:00,
2013-08-02 06:45:00,49.7,20.7,30.11,NE,52,0.0,0.0,32,0.00,,---,0.00,VWS V14.00,2013-08-02 13:45:00,
2013-08-02 06:50:00,50.0,21.0,30.11,NE,53,0.0,0.0,32,0.00,,---,0.00,VWS V14.00,2013-08-02 13:50:00,
2013-08-02 06:55:00,50.4,20.5,30.11,NE,53,0.0,0.0,30,0.00,,---,0.00,VWS V14.00,2013-08-02 13:55:00,
2013-08-02 07:00:00,50.8,20.9,30.11,NE,53,0.0,0.0,30,0.00,,---,0.00,VWS V14.00,2013-08-02 14:00:00,
2013-08-02 07:05:00,51.6,20.8,30.11,NE,52,0.0,0.0,30,0.00,,---,0.00,VWS V14.00,2013-08-02 14:05:00,
2013-08-02 07:10:00,51.8,21.0,30.11,NE,53,0.0,0.0,30,0.00,,---,0.00,VWS V14.00,2013-08-02 14:10:00,
2013-08-02 07:15:00,51.8,21.0,30.11,NE,53,0.0,0.0,30,0.00,,---,0.00,VWS V14.00,2013-08-02 14:15:00,
2013-08-02 07:20:00,51.8,21.0,30.11,NE,53,0.0,0.0,30,0.00,,---,0.00,VWS V14.00,2013-08-02 14:20:00,
2013-08-02 07:25:00,52.1,21.2,30.11,NE,52,0.0,0.0,30,0.00,,---,0.00,VWS V14.00,2013-08-02 14:25:00,
2013-08-02 07:30:00,52.7,21.8,30.11,NE,53,0.0,0.0,30,0.00,,---,0.00,VWS V14.00,2013-08-02 14:30:00,
2013-08-02 07:35:00,53.3,21.5,30.11,NE,53,0.0,0.0,28,0.00,,---,0.00,VWS V14.00,2013-08-02 14:35:00,
2013-08-02 07:40:00,53.9,22.0,30.11,NE,53,0.0,0.0,28,0.00,,---,0.00,VWS V14.00,2013-08-02 14:40:00,
2013-08-02 07:50:00,55.0,21.2,30.11,NE,53,0.0,0.0,26,0.00,,---,0.00,VWS V14.00,2013-08-02 14:50:00,
2013-08-02 07:55:00,55.3,21.5,30.11,NE,53,0.0,0.0,26,0.00,,---,0.00,VWS V14.00,2013-08-02 14:55:00,
2013-08-02 08:00:00,55.7,21.8,30.11,NE,53,0.0,0.0,26,0.00,,---,0.00,VWS V14.00,2013-08-02 15:00:00,
2013-08-02 08:10:00,56.5,22.5,30.11,NE,53,0.0,0.0,26,0.00,,---,0.00,VWS V14.00,2013-08-02 15:10:00,
2013-08-02 08:15:00,56.8,21.9,30.11,NE,52,0.0,0.0,26,0.00,,---,0.00,VWS V14.00,2013-08-02 15:15:00,
2013-08-02 08:20:00,57.2,22.2,30.11,NE,52,0.0,0.0,26,0.00,,---,0.00,VWS V14.00,2013-08-02 15:20:00,
2013-08-02 08:25:00,57.5,22.4,30.11,NE,53,0.0,0.0,26,0.00,,---,0.00,VWS V14.00,2013-08-02 15:25:00,
2013-08-02 08:30:00,57.7,22.6,30.12,NE,53,0.0,0.0,26,0.00,,---,0.00,VWS V14.00,2013-08-02 15:30:00,
2013-08-02 08:35:00,58.1,23.0,30.12,NE,53,0.0,0.0,26,0.00,,---,0.00,VWS V14.00,2013-08-02 15:35:00,
2013-08-02 08:40:00,58.7,23.5,30.11,NE,53,0.0,0.0,26,0.00,,---,0.00,VWS V14.00,2013-08-02 15:40:00,
2013-08-02 08:45:00,59.3,23.0,30.11,NE,53,0.0,0.0,24,0.00,,---,0.00,VWS V14.00,2013-08-02 15:45:00,
2013-08-02 08:50:00,59.7,23.4,30.11,NE,53,4.0,6.0,24,0.00,,---,0.00,VWS V14.00,2013-08-02 15:50:00,
2013-08-02 08:55:00,60.4,24.0,30.12,NE,52,2.0,6.0,24,0.00,,---,0.00,VWS V14.00,2013-08-02 15:55:00,
2013-08-02 09:00:00,60.8,25.3,30.12,NE,53,2.0,6.0,26,0.00,,---,0.00,VWS V14.00,2013-08-02 16:00:00,
2013-08-02 09:10:00,60.8,24.3,30.11,NE,53,2.0,7.0,24,0.00,,---,0.00,VWS V14.00,2013-08-02 16:10:00,
2013-08-02 09:15:00,61.3,24.7,30.11,NE,52,4.0,7.0,24,0.00,,---,0.00,VWS V14.00,2013-08-02 16:15:00,
2013-08-02 09:20:00,61.8,24.1,30.11,NE,53,1.0,7.0,24,0.00,,---,0.00,VWS V14.00,2013-08-02 16:20:00,
2013-08-02 09:25:00,62.2,25.5,30.11,NE,53,0.0,7.0,24,0.00,,---,0.00,VWS V14.00,2013-08-02 16:25:00,
2013-08-02 09:30:00,62.5,25.7,30.11,NE,52,5.0,7.0,24,0.00,,---,0.00,VWS V14.00,2013-08-02 16:30:00,
2013-08-02 09:40:00,63.2,25.3,30.11,NE,53,5.0,7.0,24,0.00,,---,0.00,VWS V14.00,2013-08-02 16:40:00,
2013-08-02 09:45:00,63.6,26.7,30.11,NE,53,6.0,8.0,24,0.00,,---,0.00,VWS V14.00,2013-08-02 16:45:00,
2013-08-02 09:50:00,63.8,26.8,30.11,NE,53,0.0,6.0,24,0.00,,---,0.00,VWS V14.00,2013-08-02 16:50:00,
2013-08-02 09:55:00,64.4,26.3,30.11,NE,52,0.0,0.0,24,0.00,,---,0.00,VWS V14.00,2013-08-02 16:55:00,
2013-08-02 10:00:00,65.0,25.8,30.11,NE,53,0.0,0.0,22,0.00,,---,0.00,VWS V14.00,2013-08-02 17:00:00,
2013-08-02 10:05:00,65.2,26.0,30.11,NE,52,0.0,0.0,22,0.00,,---,0.00,VWS V14.00,2013-08-02 17:05:00,
2013-08-02 10:10:00,65.5,27.3,30.10,NE,52,0.0,0.0,24,0.00,,---,0.00,VWS V14.00,2013-08-02 17:10:00,
2013-08-02 10:15:00,66.1,27.8,30.10,NE,52,0.0,0.0,24,0.00,,---,0.00,VWS V14.00,2013-08-02 17:15:00,
2013-08-02 10:25:00,67.1,26.5,30.10,NE,52,0.0,0.0,22,0.00,,---,0.00,VWS V14.00,2013-08-02 17:25:00,
2013-08-02 10:35:00,67.7,27.0,30.10,NE,53,0.0,0.0,22,0.00,,---,0.00,VWS V14.00,2013-08-02 17:35:00,
2013-08-02 10:45:00,68.3,23.9,30.10,NE,52,0.0,0.0,18,0.00,,---,0.00,VWS V14.00,2013-08-02 17:45:00,
2013-08-02 10:55:00,69.3,24.7,30.09,NE,52,0.0,0.0,18,0.00,,---,0.00,VWS V14.00,2013-08-02 17:55:00,
2013-08-02 11:00:00,69.6,24.9,30.09,NE,53,0.0,0.0,18,0.00,,---,0.00,VWS V14.00,2013-08-02 18:00:00,
2013-08-02 11:05:00,70.4,24.2,30.09,NE,53,0.0,0.0,18,0.00,,---,0.00,VWS V14.00,2013-08-02 18:05:00,
2013-08-02 11:15:00,70.3,26.8,30.09,ENE,57,0.0,6.0,20,0.00,,---,0.00,VWS V14.00,2013-08-02 18:15:00,
2013-08-02 11:20:00,70.7,25.8,30.09,NE,56,0.0,0.0,18,0.00,,---,0.00,VWS V14.00,2013-08-02 18:20:00,
2013-08-02 11:25:00,71.2,26.2,30.09,NE,56,0.0,0.0,18,0.00,,---,0.00,VWS V14.00,2013-08-02 18:25:00,
2013-08-02 11:30:00,71.4,25.0,30.09,NE,56,0.0,0.0,18,0.00,,---,0.00,VWS V14.00,2013-08-02 18:30:00,
2013-08-02 11:35:00,71.9,24.0,30.08,NE,56,0.0,0.0,16,0.00,,---,0.00,VWS V14.00,2013-08-02 18:35:00,
2013-08-02 11:40:00,72.3,24.4,30.08,NE,56,0.0,0.0,16,0.00,,---,0.00,VWS V14.00,2013-08-02 18:40:00,
2013-08-02 11:45:00,72.8,24.8,30.08,NE,56,0.0,0.0,16,0.00,,---,0.00,VWS V14.00,2013-08-02 18:45:00,
2013-08-02 11:55:00,74.0,24.2,30.08,NE,56,0.0,0.0,16,0.00,,---,0.00,VWS V14.00,2013-08-02 18:55:00,
2013-08-02 12:00:00,74.0,22.6,30.07,NE,56,1.0,8.0,14,0.00,,---,0.00,VWS V14.00,2013-08-02 19:00:00,
2013-08-02 12:05:00,74.6,23.1,30.07,NNE,32,1.0,10.0,14,0.00,,---,0.00,VWS V14.00,2013-08-02 19:05:00,
2013-08-02 12:15:00,75.2,21.9,30.07,NNE,14,0.0,8.0,14,0.00,,---,0.00,VWS V14.00,2013-08-02 19:15:00,
2013-08-02 12:20:00,76.0,22.5,30.07,NNE,14,0.0,6.0,14,0.00,,---,0.00,VWS V14.00,2013-08-02 19:20:00,
2013-08-02 12:25:00,76.7,21.3,30.07,NNE,14,7.0,8.0,12,0.00,,---,0.00,VWS V14.00,2013-08-02 19:25:00,
2013-08-02 12:30:00,77.1,19.6,30.07,North,5,1.0,12.0,12,0.00,,---,0.00,VWS V14.00,2013-08-02 19:30:00,
2013-08-02 12:40:00,77.2,19.7,30.06,North,360,0.0,6.0,12,0.00,,---,0.00,VWS V14.00,2013-08-02 19:40:00,
2013-08-02 12:45:00,78.1,20.4,30.06,North,5,0.0,6.0,12,0.00,,---,0.00,VWS V14.00,2013-08-02 19:45:00,
2013-08-02 12:50:00,78.5,20.7,30.06,North,360,6.0,9.0,12,0.00,,---,0.00,VWS V14.00,2013-08-02 19:50:00,
2013-08-02 13:00:00,78.5,20.7,30.06,North,5,5.0,10.0,12,0.00,,---,0.00,VWS V14.00,2013-08-02 20:00:00,
2013-08-02 13:10:00,78.7,22.8,30.05,NNW,337,8.0,14.0,12,0.00,,---,0.00,VWS V14.00,2013-08-02 20:10:00,
2013-08-02 13:15:00,78.6,20.8,30.05,NNW,337,0.0,9.0,12,0.00,,---,0.00,VWS V14.00,2013-08-02 20:15:00,
2013-08-02 13:25:00,78.2,22.5,30.05,NNW,327,5.0,13.0,12,0.00,,---,0.00,VWS V14.00,2013-08-02 20:25:00,
2013-08-02 13:35:00,78.6,24.6,30.05,NW,324,13.0,14.0,14,0.00,,---,0.00,VWS V14.00,2013-08-02 20:35:00,
2013-08-02 13:45:00,79.1,25.0,30.05,NW,306,12.0,16.0,14,0.00,,---,0.00,VWS V14.00,2013-08-02 20:45:00,
2013-08-02 13:50:00,79.3,25.1,30.05,NW,306,13.0,15.0,14,0.00,,---,0.00,VWS V14.00,2013-08-02 20:50:00,
2013-08-02 13:55:00,79.6,25.4,30.05,NW,305,10.0,15.0,14,0.00,,---,0.00,VWS V14.00,2013-08-02 20:55:00,
2013-08-02 14:05:00,79.5,27.0,30.05,NW,305,10.0,11.0,14,0.00,,---,0.00,VWS V14.00,2013-08-02 21:05:00,
2013-08-02 14:10:00,79.6,25.4,30.05,NW,304,7.0,15.0,14,0.00,,---,0.00,VWS V14.00,2013-08-02 21:10:00,
2013-08-02 14:15:00,79.3,25.1,30.04,NW,304,10.0,14.0,14,0.00,,---,0.00,VWS V14.00,2013-08-02 21:15:00,
2013-08-02 14:25:00,80.2,25.9,30.04,NW,314,8.0,16.0,14,0.00,,---,0.00,VWS V14.00,2013-08-02 21:25:00,
2013-08-02 14:35:00,80.9,26.4,30.04,NW,305,13.0,16.0,14,0.00,,---,0.00,VWS V14.00,2013-08-02 21:35:00,
2013-08-02 14:40:00,80.5,26.1,30.04,NW,307,8.0,18.0,14,0.00,,---,0.00,VWS V14.00,2013-08-02 21:40:00,
2013-08-02 14:45:00,80.6,26.2,30.04,NW,307,7.0,14.0,14,0.00,,---,0.00,VWS V14.00,2013-08-02 21:45:00,
2013-08-02 14:50:00,81.1,24.7,30.03,NW,325,11.0,16.0,12,0.00,,---,0.00,VWS V14.00,2013-08-02 21:50:00,
2013-08-02 14:55:00,81.5,25.0,30.03,NW,320,10.0,16.0,12,0.00,,---,0.00,VWS V14.00,2013-08-02 21:55:00,
2013-08-02 15:00:00,81.9,25.3,30.03,NW,304,10.0,14.0,12,0.00,,---,0.00,VWS V14.00,2013-08-02 22:00:00,
2013-08-02 15:05:00,81.8,25.3,30.03,NW,313,12.0,21.0,12,0.00,,---,0.00,VWS V14.00,2013-08-02 22:05:00,
2013-08-02 15:10:00,81.8,25.3,30.03,NNW,331,13.0,21.0,12,0.00,,---,0.00,VWS V14.00,2013-08-02 22:10:00,
2013-08-02 15:15:00,81.3,24.9,30.03,WNW,302,13.0,22.0,12,0.00,,---,0.00,VWS V14.00,2013-08-02 22:15:00,
2013-08-02 15:20:00,81.4,24.9,30.03,NNW,333,12.0,16.0,12,0.00,,---,0.00,VWS V14.00,2013-08-02 22:20:00,
2013-08-02 15:25:00,81.1,24.7,30.03,WNW,289,15.0,19.0,12,0.00,,---,0.00,VWS V14.00,2013-08-02 22:25:00,
2013-08-02 15:30:00,81.0,24.6,30.03,NW,305,9.0,18.0,12,0.00,,---,0.00,VWS V14.00,2013-08-02 22:30:00,
2013-08-02 15:35:00,81.2,24.8,30.02,NW,323,13.0,21.0,12,0.00,,---,0.00,VWS V14.00,2013-08-02 22:35:00,
2013-08-02 15:40:00,81.6,25.1,30.02,WNW,292,15.0,16.0,12,0.00,,---,0.00,VWS V14.00,2013-08-02 22:40:00,
2013-08-02 15:50:00,82.0,25.4,30.02,NW,306,21.0,21.0,12,0.00,,---,0.00,VWS V14.00,2013-08-02 22:50:00,
2013-08-02 16:00:00,82.2,27.4,30.02,WNW,303,16.0,21.0,14,0.00,,---,0.00,VWS V14.00,2013-08-02 23:00:00,
2013-08-02 16:05:00,81.5,25.0,30.02,NW,314,7.0,23.0,12,0.00,,---,0.00,VWS V14.00,2013-08-02 23:05:00,
2013-08-02 16:10:00,81.8,25.3,30.02,NNW,329,9.0,22.0,12,0.00,,---,0.00,VWS V14.00,2013-08-02 23:10:00,
2013-08-02 16:15:00,81.4,24.9,30.02,NW,325,11.0,20.0,12,0.00,,---,0.00,VWS V14.00,2013-08-02 23:15:00,
2013-08-02 16:25:00,81.2,26.6,30.02,NW,317,7.0,21.0,14,0.00,,---,0.00,VWS V14.00,2013-08-02 23:25:00,
2013-08-02 16:30:00,81.8,25.3,30.02,NNW,344,16.0,16.0,12,0.00,,---,0.00,VWS V14.00,2013-08-02 23:30:00,
2013-08-02 16:35:00,82.0,25.4,30.02,WNW,303,12.0,20.0,12,0.00,,---,0.00,VWS V14.00,2013-08-02 23:35:00,
2013-08-02 16:40:00,81.7,25.2,30.02,NNW,333,12.0,19.0,12,0.00,,---,0.00,VWS V14.00,2013-08-02 23:40:00,
2013-08-02 16:45:00,81.9,27.2,30.02,NW,312,18.0,23.0,14,0.00,,---,0.00,VWS V14.00,2013-08-02 23:45:00,
2013-08-02 16:50:00,82.1,27.4,30.02,WNW,287,13.0,22.0,14,0.00,,---,0.00,VWS V14.00,2013-08-02 23:50:00,
2013-08-02 16:55:00,81.9,25.3,30.02,NNW,329,15.0,22.0,12,0.00,,---,0.00,VWS V14.00,2013-08-02 23:55:00,
2013-08-02 17:05:00,81.8,27.1,30.02,West,280,10.0,22.0,14,0.00,,---,0.00,VWS V14.00,2013-08-03 00:05:00,
2013-08-02 17:10:00,81.9,27.2,30.02,WNW,288,12.0,20.0,14,0.00,,---,0.00,VWS V14.00,2013-08-03 00:10:00,
2013-08-02 17:15:00,81.6,27.0,30.02,West,280,13.0,21.0,14,0.00,,---,0.00,VWS V14.00,2013-08-03 00:15:00,
2013-08-02 17:20:00,81.5,26.9,30.02,West,280,11.0,18.0,14,0.00,,---,0.00,VWS V14.00,2013-08-03 00:20:00,
2013-08-02 17:25:00,81.4,28.5,30.02,WNW,292,9.0,18.0,14,0.00,,---,0.00,VWS V14.00,2013-08-03 00:25:00,
2013-08-02 17:30:00,80.6,27.9,30.02,NW,309,13.0,23.0,14,0.00,,---,0.00,VWS V14.00,2013-08-03 00:30:00,
2013-08-02 17:35:00,80.2,27.6,30.02,WNW,299,13.0,22.0,14,0.00,,---,0.00,VWS V14.00,2013-08-03 00:35:00,
2013-08-02 17:45:00,80.2,29.2,30.02,WNW,302,10.0,21.0,16,0.00,,---,0.00,VWS V14.00,2013-08-03 00:45:00,
2013-08-02 17:50:00,80.2,30.7,30.01,West,279,16.0,21.0,16,0.00,,---,0.00,VWS V14.00,2013-08-03 00:50:00,
2013-08-02 17:55:00,80.1,29.1,30.01,WNW,302,14.0,20.0,16,0.00,,---,0.00,VWS V14.00,2013-08-03 00:55:00,
2013-08-02 18:00:00,80.1,29.1,30.01,NW,316,22.0,23.0,16,0.00,,---,0.00,VWS V14.00,2013-08-03 01:00:00,
2013-08-02 18:05:00,79.1,29.9,30.01,WNW,290,16.0,23.0,16,0.00,,---,0.00,VWS V14.00,2013-08-03 01:05:00,
2013-08-02 18:10:00,79.1,28.3,30.02,WNW,303,18.0,22.0,16,0.00,,---,0.00,VWS V14.00,2013-08-03 01:10:00,
2013-08-02 18:15:00,78.8,28.1,30.02,NW,313,15.0,21.0,16,0.00,,---,0.00,VWS V14.00,2013-08-03 01:15:00,
2013-08-02 18:20:00,78.9,28.2,30.02,NW,305,14.0,20.0,16,0.00,,---,0.00,VWS V14.00,2013-08-03 01:20:00,
2013-08-02 18:25:00,78.8,28.1,30.02,NW,304,13.0,22.0,16,0.00,,---,0.00,VWS V14.00,2013-08-03 01:25:00,
2013-08-02 18:30:00,78.6,27.9,30.02,NW,304,19.0,23.0,16,0.00,,---,0.00,VWS V14.00,2013-08-03 01:30:00,
2013-08-02 18:35:00,78.2,29.1,30.02,NW,315,15.0,21.0,16,0.00,,---,0.00,VWS V14.00,2013-08-03 01:35:00,
2013-08-02 18:40:00,78.1,29.0,30.02,NW,321,10.0,19.0,16,0.00,,---,0.00,VWS V14.00,2013-08-03 01:40:00,
2013-08-02 18:45:00,78.1,29.0,30.02,NW,313,10.0,19.0,16,0.00,,---,0.00,VWS V14.00,2013-08-03 01:45:00,
2013-08-02 18:50:00,77.6,30.1,30.02,NW,307,9.0,20.0,18,0.00,,---,0.00,VWS V14.00,2013-08-03 01:50:00,
2013-08-02 18:55:00,77.5,30.0,30.02,NW,306,9.0,18.0,18,0.00,,---,0.00,VWS V14.00,2013-08-03 01:55:00,
2013-08-02 19:00:00,77.3,29.8,30.02,WNW,302,11.0,19.0,18,0.00,,---,0.00,VWS V14.00,2013-08-03 02:00:00,
2013-08-02 19:10:00,76.7,30.7,30.03,WNW,302,12.0,20.0,18,0.00,,---,0.00,VWS V14.00,2013-08-03 02:10:00,
2013-08-02 19:15:00,76.5,30.6,30.02,NW,313,10.0,16.0,18,0.00,,---,0.00,VWS V14.00,2013-08-03 02:15:00,
2013-08-02 19:20:00,76.4,31.8,30.02,NW,305,9.0,15.0,20,0.00,,---,0.00,VWS V14.00,2013-08-03 02:20:00,
2013-08-02 19:25:00,76.1,31.5,30.03,NW,318,12.0,16.0,20,0.00,,---,0.00,VWS V14.00,2013-08-03 02:25:00,
2013-08-02 19:30:00,75.7,31.2,30.03,NW,311,11.0,15.0,20,0.00,,---,0.00,VWS V14.00,2013-08-03 02:30:00,
2013-08-02 19:35:00,75.5,32.3,30.03,WNW,298,12.0,14.0,20,0.00,,---,0.00,VWS V14.00,2013-08-03 02:35:00,
2013-08-02 19:40:00,75.0,31.9,30.03,NW,307,15.0,15.0,20,0.00,,---,0.00,VWS V14.00,2013-08-03 02:40:00,
2013-08-02 19:45:00,74.6,31.5,30.03,NW,306,12.0,16.0,20,0.00,,---,0.00,VWS V14.00,2013-08-03 02:45:00,
2013-08-02 19:50:00,74.2,32.4,30.03,NW,311,13.0,15.0,22,0.00,,---,0.00,VWS V14.00,2013-08-03 02:50:00,
2013-08-02 20:00:00,72.9,32.4,30.03,WNW,302,6.0,13.0,22,0.00,,---,0.00,VWS V14.00,2013-08-03 03:00:00,
2013-08-02 20:10:00,71.7,32.5,30.03,NW,315,7.0,11.0,24,0.00,,---,0.00,VWS V14.00,2013-08-03 03:10:00,
2013-08-02 20:15:00,71.3,32.2,30.04,NW,316,8.0,12.0,24,0.00,,---,0.00,VWS V14.00,2013-08-03 03:15:00,
2013-08-02 20:20:00,71.0,32.9,30.04,NW,317,9.0,13.0,24,0.00,,---,0.00,VWS V14.00,2013-08-03 03:20:00,
2013-08-02 20:25:00,71.1,33.0,30.04,NW,322,12.0,14.0,24,0.00,,---,0.00,VWS V14.00,2013-08-03 03:25:00,
2013-08-02 20:30:00,71.0,32.9,30.04,NW,322,8.0,12.0,24,0.00,,---,0.00,VWS V14.00,2013-08-03 03:30:00,
2013-08-02 20:40:00,71.0,32.9,30.05,NW,322,8.0,12.0,24,0.00,,---,0.00,VWS V14.00,2013-08-03 03:40:00,
2013-08-02 20:45:00,71.0,32.9,30.05,NW,322,7.0,10.0,24,0.00,,---,0.00,VWS V14.00,2013-08-03 03:45:00,
2013-08-02 20:50:00,70.7,32.7,30.05,NW,322,6.0,10.0,24,0.00,,---,0.00,VWS V14.00,2013-08-03 03:50:00,
2013-08-02 20:55:00,70.1,33.2,30.05,NW,322,0.0,9.0,26,0.00,,---,0.00,VWS V14.00,2013-08-03 03:55:00,
2013-08-02 21:00:00,69.7,32.8,30.05,NW,322,0.0,0.0,26,0.00,,---,0.00,VWS V14.00,2013-08-03 04:00:00,
2013-08-02 21:05:00,69.0,31.2,30.06,NW,322,0.0,0.0,24,0.00,,---,0.00,VWS V14.00,2013-08-03 04:05:00,
2013-08-02 21:10:00,68.1,32.4,30.06,NW,322,0.0,0.0,26,0.00,,---,0.00,VWS V14.00,2013-08-03 04:10:00,
2013-08-02 21:15:00,67.4,30.9,30.06,NW,322,0.0,0.0,26,0.00,,---,0.00,VWS V14.00,2013-08-03 04:15:00,
2013-08-02 21:20:00,67.0,31.5,30.06,NW,322,0.0,0.0,26,0.00,,---,0.00,VWS V14.00,2013-08-03 04:20:00,
2013-08-02 21:25:00,66.9,32.3,30.06,NW,322,0.0,0.0,28,0.00,,---,0.00,VWS V14.00,2013-08-03 04:25:00,
2013-08-02 21:30:00,66.8,32.2,30.07,NW,322,0.0,0.0,28,0.00,,---,0.00,VWS V14.00,2013-08-03 04:30:00,
2013-08-02 21:35:00,66.1,32.5,30.07,NW,322,0.0,0.0,28,0.00,,---,0.00,VWS V14.00,2013-08-03 04:35:00,
2013-08-02 21:40:00,65.8,32.3,30.07,NW,322,0.0,0.0,28,0.00,,---,0.00,VWS V14.00,2013-08-03 04:40:00,
2013-08-02 21:45:00,66.0,32.4,30.07,NW,322,0.0,0.0,28,0.00,,---,0.00,VWS V14.00,2013-08-03 04:45:00,
2013-08-02 21:55:00,66.3,33.5,30.07,NW,322,0.0,0.0,30,0.00,,---,0.00,VWS V14.00,2013-08-03 04:55:00,
2013-08-02 22:00:00,66.4,33.6,30.07,NW,322,0.0,0.0,30,0.00,,---,0.00,VWS V14.00,2013-08-03 05:00:00,
2013-08-02 22:05:00,66.4,33.6,30.07,NW,322,0.0,0.0,30,0.00,,---,0.00,VWS V14.00,2013-08-03 05:05:00,
2013-08-02 22:10:00,66.5,32.9,30.07,NW,322,0.0,0.0,28,0.00,,---,0.00,VWS V14.00,2013-08-03 05:10:00,
2013-08-02 22:15:00,66.2,32.6,30.07,NW,322,0.0,0.0,28,0.00,,---,0.00,VWS V14.00,2013-08-03 05:15:00,
2013-08-02 22:20:00,65.4,31.0,30.07,NW,322,0.0,0.0,28,0.00,,---,0.00,VWS V14.00,2013-08-03 05:20:00,
2013-08-02 22:25:00,65.4,31.0,30.07,NW,322,0.0,0.0,28,0.00,,---,0.00,VWS V14.00,2013-08-03 05:25:00,
2013-08-02 22:30:00,65.3,30.9,30.07,NW,322,0.0,0.0,28,0.00,,---,0.00,VWS V14.00,2013-08-03 05:30:00,
2013-08-02 22:35:00,64.9,29.7,30.07,NW,322,0.0,0.0,26,0.00,,---,0.00,VWS V14.00,2013-08-03 05:35:00,
2013-08-02 22:40:00,64.4,29.3,30.07,NW,322,0.0,0.0,26,0.00,,---,0.00,VWS V14.00,2013-08-03 05:40:00,
2013-08-02 22:45:00,64.1,29.9,30.07,NW,322,0.0,0.0,28,0.00,,---,0.00,VWS V14.00,2013-08-03 05:45:00,
2013-08-02 22:50:00,64.1,29.9,30.07,NNW,336,0.0,0.0,28,0.00,,---,0.00,VWS V14.00,2013-08-03 05:50:00,
2013-08-02 22:55:00,64.1,29.9,30.07,NNW,337,0.0,0.0,28,0.00,,---,0.00,VWS V14.00,2013-08-03 05:55:00,
2013-08-02 23:00:00,64.3,30.1,30.07,NNW,337,0.0,0.0,28,0.00,,---,0.00,VWS V14.00,2013-08-03 06:00:00,
2013-08-02 23:05:00,64.4,30.2,30.07,NNW,337,0.0,0.0,28,0.00,,---,0.00,VWS V14.00,2013-08-03 06:05:00,
2013-08-02 23:10:00,64.8,30.5,30.07,NNW,337,0.0,0.0,28,0.00,,---,0.00,VWS V14.00,2013-08-03 06:10:00,
2013-08-02 23:15:00,64.9,29.7,30.07,NNW,337,0.0,0.0,26,0.00,,---,0.00,VWS V14.00,2013-08-03 06:15:00,
2013-08-02 23:20:00,64.2,30.0,30.07,NNW,337,0.0,0.0,28,0.00,,---,0.00,VWS V14.00,2013-08-03 06:20:00,
2013-08-02 23:25:00,64.1,29.9,30.07,NNW,337,0.0,0.0,28,0.00,,---,0.00,VWS V14.00,2013-08-03 06:25:00,
2013-08-02 23:30:00,62.9,28.0,30.07,NNW,337,0.0,0.0,26,0.00,,---,0.00,VWS V14.00,2013-08-03 06:30:00,
2013-08-02 23:35:00,61.4,27.6,30.07,NNW,338,0.0,0.0,28,0.00,,---,0.00,VWS V14.00,2013-08-03 06:35:00,
2013-08-02 23:40:00,60.9,28.0,30.07,NNW,337,0.0,0.0,28,0.00,,---,0.00,VWS V14.00,2013-08-03 06:40:00,
2013-08-02 23:45:00,60.5,28.5,30.07,NNW,337,0.0,0.0,30,0.00,,---,0.00,VWS V14.00,2013-08-03 06:45:00,
2013-08-02 23:50:00,60.7,28.7,30.07,NNW,337,0.0,0.0,30,0.00,,---,0.00,VWS V14.00,2013-08-03 06:50:00,
2013-08-02 23:55:00,60.7,28.7,30.07,NNW,338,0.0,0.0,30,0.00,,---,0.00,VWS V14.00,2013-08-03 06:55:00,